TimeEDT,TemperatureF,Dew PointF,Humidity,Sea Level PressureIn,VisibilityMPH,Wind Direction,Wind SpeedMPH,Gust SpeedMPH,PrecipitationIn,Events,Conditions,WindDirDegrees,DateUTC
12:51 AM,59.0,48.9,69,29.77,10.0,Calm,Calm,-,N/A,,Clear,0,2013-05-16 04:51:00
1:51 AM,57.0,50.0,77,29.77,10.0,South,4.6,-,N/A,,Clear,190,2013-05-16 05:51:00
2:51 AM,55.0,48.9,80,29.77,10.0,Calm,Calm,-,N/A,,Clear,0,2013-05-16 06:51:00
3:51 AM,53.1,48.9,86,29.78,10.0,Calm,Calm,-,N/A,,Clear,0,2013-05-16 07:51:00
4:51 AM,53.1,48.9,86,29.80,10.0,South,4.6,-,N/A,,Mostly Cloudy,180,2013-05-16 08:51:00
5:51 AM,51.8,46.4,82,29.81,10.0,South,6.9,-,N/A,,Scattered Clouds,190,2013-05-16 09:51:00
6:51 AM,54.0,48.0,80,29.83,10.0,Calm,Calm,-,N/A,,Clear,0,2013-05-16 10:51:00
7:51 AM,57.9,48.9,72,29.84,10.0,SSW,3.5,-,N/A,,Clear,200,2013-05-16 11:51:00
8:51 AM,62.1,48.9,62,29.86,10.0,SW,5.8,-,N/A,,Clear,230,2013-05-16 12:51:00
9:51 AM,68.0,48.0,49,29.86,10.0,SSW,5.8,-,N/A,,Clear,210,2013-05-16 13:51:00
10:51 AM,72.0,41.0,33,29.87,10.0,West,11.5,-,N/A,,Clear,270,2013-05-16 14:51:00
11:51 AM,72.0,37.9,29,29.88,2.5,WSW,8.1,-,N/A,,Haze,250,2013-05-16 15:51:00
11:59 AM,71.6,37.4,29,29.88,10.0,West,10.4,16.1,N/A,,Clear,270,2013-05-16 15:59:00
12:51 PM,73.9,37.9,27,29.88,10.0,WSW,10.4,19.6,N/A,,Clear,250,2013-05-16 16:51:00
1:51 PM,69.1,46.0,44,29.89,10.0,West,10.4,-,N/A,,Clear,280,2013-05-16 17:51:00
2:51 PM,70.0,42.1,36,29.90,10.0,West,9.2,-,N/A,,Clear,260,2013-05-16 18:51:00
3:51 PM,70.0,39.9,33,29.91,10.0,West,15.0,20.7,N/A,,Clear,270,2013-05-16 19:51:00
4:51 PM,68.0,42.1,39,29.91,10.0,West,12.7,18.4,N/A,,Clear,270,2013-05-16 20:51:00
5:51 PM,69.1,42.1,38,29.93,10.0,West,6.9,-,N/A,,Clear,270,2013-05-16 21:51:00
6:51 PM,66.9,39.9,37,29.94,10.0,WNW,5.8,-,N/A,,Clear,300,2013-05-16 22:51:00
7:51 PM,66.9,37.0,33,29.94,10.0,NW,3.5,-,N/A,,Clear,310,2013-05-16 23:51:00
8:51 PM,62.1,41.0,46,29.95,10.0,Calm,Calm,-,N/A,,Clear,0,2013-05-17 00:51:00
9:51 PM,57.0,43.0,59,29.98,10.0,Calm,Calm,-,N/A,,Clear,0,2013-05-17 01:51:00
10:51 PM,54.0,44.1,69,30.00,10.0,Calm,Calm,-,N/A,,Clear,0,2013-05-17 02:51:00
11:51 PM,54.0,44.1,69,30.01,10.0,Calm,Calm,-,N/A,,Clear,0,2013-05-17 03:51:00